Wahpeton, MN

9:58 PM CST on November 19, 2019 (GMT -0600)
Stern

Weather History for KBWP - September, 2019

Change the Weather History Date:

Thursday, September 19, 2019

  Actual Average (KFFM) Record (KFFM)
Temperature  
Mean Temperature 66 °F -  
Max Temperature 80 °F 69 °F 89 °F (1970)
Min Temperature 53 °F 46 °F 34 °F (1991)
Cooling Degree Days 2    
Growing Degree Days 16 (Base 50)    
Moisture  
Dew Point 56 °F    
Average Humidity 70    
Maximum Humidity 94    
Minimum Humidity 39    
Precipitation  
Precipitation 0.00 in - - ()
Sea Level Pressure  
Sea Level Pressure 29.96 in    
Wind  
Wind Speed 3 mph ()    
Max Wind Speed 8 mph    
Max Gust Speed -    
Visibility 10.0 miles    
Events      
Averages and records for this station are not official NWS values.
T = Trace of Precipitation, MM = Missing Value Source: Averaged Metar Reports

Daily Weather History Graph

Daily Weather History Graph

Search for Another Location

Airport or City:

Astronomy

Sep. 19, 2019 Rise Set
Actual Time 7:09 AM CDT 7:30 PM CDT
Civil Twilight 6:39 AM CDT 8:00 PM CDT
Nautical Twilight 6:03 AM CDT 8:35 PM CDT
Astronomical Twilight 5:27 AM CDT 9:12 PM CDT
Moon 10:22 PM CDT (9/19) 12:30 PM CDT (9/19)
Length of Visible Light 13h 21m
Length of Day
12h 21m
Waning Gibbous, 74% of the Moon is Illuminated
Sep 19
Waning Gibbous
Sep 21
Last Quarter
Sep 28
New
Oct 5
First Quarter
Oct 13
Full

Hourly Weather History & Observations

Time (CDT) Temp. Heat Index Dew Point Humidity Pressure Visibility Wind Dir Wind Speed Gust Speed Precip Events Conditions
12:35 AM 60.8 °F - 55.4 °F 82% 29.91 in 10.0 mi West 5.8 mph - N/A   Unknown
12:55 AM 60.8 °F - 55.4 °F 82% 29.92 in 10.0 mi West 4.6 mph - N/A   Unknown
1:15 AM 60.8 °F - 55.4 °F 82% 29.92 in 10.0 mi West 4.6 mph - N/A   Unknown
1:35 AM 60.8 °F - 55.4 °F 82% 29.93 in 10.0 mi SSW 3.5 mph - N/A   Unknown
1:55 AM 59.0 °F - 55.4 °F 88% 29.94 in 10.0 mi SW 4.6 mph - N/A   Unknown
2:15 AM 59.0 °F - 55.4 °F 88% 29.94 in 10.0 mi SW 4.6 mph - N/A   Unknown
2:35 AM 59.0 °F - 55.4 °F 88% 29.94 in 10.0 mi SW 4.6 mph - N/A   Unknown
2:55 AM 57.2 °F - 53.6 °F 88% 29.93 in 10.0 mi WNW 6.9 mph - N/A   Unknown
3:15 AM 59.0 °F - 53.6 °F 82% 29.93 in 10.0 mi WNW 8.1 mph - N/A   Unknown
3:35 AM 59.0 °F - 55.4 °F 88% 29.94 in 10.0 mi West 3.5 mph - N/A   Unknown
3:55 AM 59.0 °F - 53.6 °F 82% 29.95 in 10.0 mi SW 3.5 mph - N/A   Unknown
4:15 AM 57.2 °F - 53.6 °F 88% 29.95 in 10.0 mi Calm Calm - N/A   Unknown
4:35 AM 57.2 °F - 53.6 °F 88% 29.94 in 10.0 mi WNW 3.5 mph - N/A   Unknown
4:55 AM 55.4 °F - 53.6 °F 94% 29.95 in 10.0 mi West 3.5 mph - N/A   Unknown
5:15 AM 55.4 °F - 53.6 °F 94% 29.95 in 10.0 mi West 3.5 mph - N/A   Unknown
5:35 AM 55.4 °F - 51.8 °F 88% 29.95 in 10.0 mi WNW 3.5 mph - N/A   Unknown
5:55 AM 53.6 °F - 51.8 °F 94% 29.94 in 10.0 mi Calm Calm - N/A   Unknown
6:15 AM 55.4 °F - 51.8 °F 88% 29.94 in 10.0 mi WNW 3.5 mph - N/A   Unknown
6:35 AM 53.6 °F - 51.8 °F 94% 29.95 in 10.0 mi Calm Calm - N/A   Unknown
6:55 AM 53.6 °F - 50.0 °F 88% 29.95 in 10.0 mi WNW 3.5 mph - N/A   Unknown
7:15 AM 53.6 °F - 51.8 °F 94% 29.96 in 10.0 mi Calm Calm - N/A   Unknown
7:35 AM 55.4 °F - 51.8 °F 88% 29.97 in 10.0 mi Calm Calm - N/A   Unknown
7:55 AM 55.4 °F - 53.6 °F 94% 29.99 in 10.0 mi Calm Calm - N/A   Unknown
8:15 AM 57.2 °F - 55.4 °F 94% 30.00 in 10.0 mi Calm Calm - N/A   Unknown
8:55 AM 60.8 °F - 55.4 °F 82% 30.00 in 10.0 mi Calm Calm - N/A   Unknown
9:15 AM 62.6 °F - 57.2 °F 82% 30.00 in 10.0 mi Calm Calm - N/A   Unknown
9:35 AM 62.6 °F - 59.0 °F 88% 30.00 in 10.0 mi ENE 3.5 mph - N/A   Unknown
9:55 AM 64.4 °F - 59.0 °F 83% 30.01 in 7.0 mi NE 3.5 mph - N/A   Unknown
10:15 AM 66.2 °F - 59.0 °F 78% 30.01 in 10.0 mi Calm Calm - N/A   Unknown
10:35 AM 68.0 °F - 59.0 °F 73% 30.01 in 10.0 mi Calm Calm - N/A   Unknown
10:55 AM 69.8 °F - 59.0 °F 68% 30.00 in 10.0 mi Calm Calm - N/A   Unknown
11:15 AM 71.6 °F - 60.8 °F 69% 30.01 in 10.0 mi Calm Calm - N/A   Unknown
11:35 AM 71.6 °F - 59.0 °F 64% 30.00 in 10.0 mi Calm Calm - N/A   Unknown
11:55 AM 73.4 °F - 59.0 °F 61% 30.00 in 10.0 mi Calm Calm - N/A   Unknown
12:15 PM 73.4 °F - 59.0 °F 61% 30.00 in 10.0 mi Calm Calm - N/A   Unknown
12:35 PM 77.0 °F - 57.2 °F 50% 30.00 in 10.0 mi SE 3.5 mph - N/A   Unknown
12:55 PM 77.0 °F - 59.0 °F 54% 29.99 in 10.0 mi ESE 3.5 mph - N/A   Unknown
1:15 PM 77.0 °F - 59.0 °F 54% 29.99 in 10.0 mi East 3.5 mph - N/A   Unknown
1:35 PM 78.8 °F - 55.4 °F 44% 29.98 in 10.0 mi East 3.5 mph - N/A   Unknown
1:55 PM 78.8 °F - 55.4 °F 44% 29.98 in 10.0 mi Calm Calm - N/A   Unknown
2:15 PM 78.8 °F - 55.4 °F 44% 29.97 in 10.0 mi Calm Calm - N/A   Unknown
2:35 PM 80.6 °F 80.5 °F 55.4 °F 42% 29.97 in 10.0 mi SSE 3.5 mph - N/A   Unknown
2:55 PM 80.6 °F 80.5 °F 55.4 °F 42% 29.97 in 10.0 mi South 4.6 mph - N/A   Unknown
3:15 PM 80.6 °F 80.5 °F 55.4 °F 42% 29.97 in 10.0 mi South 4.6 mph - N/A   Unknown
3:35 PM 80.6 °F 80.5 °F 55.4 °F 42% 29.97 in 10.0 mi South 4.6 mph - N/A   Unknown
3:55 PM 80.6 °F 80.3 °F 53.6 °F 39% 29.96 in 10.0 mi SSE 3.5 mph - N/A   Unknown
4:15 PM 80.6 °F 80.5 °F 55.4 °F 42% 29.96 in 10.0 mi SSE 4.6 mph - N/A   Unknown
4:35 PM 80.6 °F 80.3 °F 53.6 °F 39% 29.95 in 10.0 mi SE 4.6 mph - N/A   Unknown
4:55 PM 80.6 °F 80.5 °F 55.4 °F 42% 29.95 in 10.0 mi SSE 5.8 mph - N/A   Unknown
5:15 PM 80.6 °F 80.5 °F 55.4 °F 42% 29.94 in 10.0 mi ESE 4.6 mph - N/A   Unknown
5:35 PM 80.6 °F 80.5 °F 55.4 °F 42% 29.95 in 10.0 mi SSE 6.9 mph - N/A   Unknown
5:55 PM 80.6 °F 80.5 °F 55.4 °F 42% 29.94 in 10.0 mi SE 5.8 mph - N/A   Unknown
6:15 PM 78.8 °F - 55.4 °F 44% 29.94 in 10.0 mi SE 4.6 mph - N/A   Unknown
6:35 PM 78.8 °F - 57.2 °F 47% 29.94 in 10.0 mi ESE 3.5 mph - N/A   Unknown
6:55 PM 77.0 °F - 57.2 °F 50% 29.94 in 10.0 mi ESE 3.5 mph - N/A   Unknown
7:15 PM 75.2 °F - 57.2 °F 53% 29.94 in 10.0 mi ESE 3.5 mph - N/A   Unknown
7:35 PM 73.4 °F - 59.0 °F 61% 29.94 in 10.0 mi ESE 4.6 mph - N/A   Unknown
7:55 PM 71.6 °F - 59.0 °F 64% 29.94 in 10.0 mi ESE 4.6 mph - N/A   Unknown
8:15 PM 71.6 °F - 59.0 °F 64% 29.95 in 10.0 mi ESE 4.6 mph - N/A   Unknown
8:35 PM 69.8 °F - 59.0 °F 68% 29.95 in 10.0 mi ESE 4.6 mph - N/A   Unknown
8:55 PM 69.8 °F - 59.0 °F 68% 29.96 in 10.0 mi ESE 4.6 mph - N/A   Unknown
9:15 PM 69.8 °F - 59.0 °F 68% 29.96 in 10.0 mi ESE 4.6 mph - N/A   Unknown
9:35 PM 68.0 °F - 59.0 °F 73% 29.96 in 10.0 mi ESE 5.8 mph - N/A   Unknown
9:55 PM 68.0 °F - 59.0 °F 73% 29.96 in 10.0 mi ESE 4.6 mph - N/A   Unknown
10:15 PM 68.0 °F - 59.0 °F 73% 29.96 in 10.0 mi ESE 5.8 mph - N/A   Unknown
10:35 PM 66.2 °F - 59.0 °F 78% 29.96 in 10.0 mi ESE 4.6 mph - N/A   Unknown
10:55 PM 66.2 °F - 59.0 °F 78% 29.96 in 10.0 mi ESE 6.9 mph - N/A   Unknown
11:15 PM 64.4 °F - 59.0 °F 83% 29.96 in 10.0 mi ESE 5.8 mph - N/A   Unknown
11:35 PM 64.4 °F - 59.0 °F 83% 29.95 in 10.0 mi ESE 5.8 mph - N/A   Unknown
11:55 PM 66.2 °F - 59.0 °F 78% 29.95 in 10.0 mi ESE 8.1 mph - N/A   Unknown